FW8889 Weather Reports


time (UTC)temp
F
wind
direction
speed
knots
gust
knots
rain 1hr
in
rain 24hr
in
rain mn
in
humidity
%
barometer
mb
20240418174543 49 146 0.0 2.6 0.00 0.00 0.00 72 1022.7
20240418173041 49 153 0.0 2.6 0.00 0.00 0.00 69 1022.7
20240418171547 49 150 0.9 4.3 0.00 0.00 0.00 67 1022.7
20240418170044 49 142 0.9 2.6 0.00 0.00 0.00 66 1022.7
20240418164544 49 140 1.7 3.5 0.00 0.00 0.00 65 1022.5
20240418163048 49 0 0.9 3.5 0.00 0.00 0.00 66 1022.5
20240418161542 49 232 0.9 3.5 0.00 0.00 0.00 67 1022.3
20240418160044 49 262 0.0 2.6 0.00 0.00 0.00 69 1022.3
20240418154549 48 169 0.0 2.6 0.00 0.00 0.00 69 1022.5
20240418153052 48 134 0.0 4.3 0.00 0.00 0.00 68 1022.5
20240418151552 48 142 0.9 3.5 0.00 0.00 0.00 68 1022.6
20240418150132 48 166 0.0 4.3 0.00 0.00 0.00 68 1022.7
20240418144546 47 162 0.0 4.3 0.00 0.00 0.00 72 1022.6
20240418143041 47 140 0.0 3.5 0.00 0.00 0.00 71 1022.5
20240418141540 47 170 0.0 3.5 0.00 0.00 0.00 72 1022.7
20240418140049 46 142 0.9 3.5 0.00 0.00 0.00 70 1022.8
20240418134549 46 143 0.9 2.6 0.00 0.00 0.00 72 1022.9
20240418133047 46 0 0.0 2.6 0.00 0.00 0.00 76 1022.6
20240418131551 46 134 0.9 4.3 0.00 0.00 0.00 74 1022.6
20240418130042 46 141 0.9 4.3 0.00 0.00 0.00 72 1022.7
20240418124548 47 0 0.9 2.6 0.00 0.00 0.00 72 1022.7
20240418123048 47 144 0.9 3.5 0.00 0.00 0.00 72 1022.4
20240418121543 46 161 0.9 4.3 0.00 0.00 0.00 73 1022.7
20240418120047 46 171 0.9 2.6 0.00 0.00 0.00 74 1022.8
20240418114545 45 156 0.0 2.6 0.00 0.00 0.00 76 1022.4
20240418113046 45 0 0.0 4.3 0.00 0.00 0.00 80 1022.6
20240418111542 45 181 0.0 3.5 0.00 0.00 0.00 81 1022.4
20240418110047 45 0 0.0 4.3 0.00 0.00 0.00 82 1022.2
20240418104549 45 145 0.0 2.6 0.00 0.00 0.00 83 1022.0
20240418103052 45 0 0.0 3.5 0.00 0.00 0.00 83 1022.0
20240418101551 45 287 0.0 2.6 0.00 0.00 0.00 81 1021.8
20240418100046 45 136 0.0 2.6 0.00 0.00 0.00 80 1021.6
20240418094544 45 0 0.0 1.7 0.00 0.00 0.00 80 1021.2
20240418093058 45 0 0.0 2.6 0.00 0.00 0.00 80 1021.3
20240418091547 45 0 0.0 1.7 0.00 0.00 0.00 81 1021.2
20240418090054 45 141 0.0 1.7 0.00 0.00 0.00 80 1021.0
20240418084542 45 203 0.0 1.7 0.00 0.00 0.00 79 1021.3
20240418083049 44 0 0.0 1.7 0.00 0.00 0.00 79 1021.0
20240418081541 44 0 0.0 0.9 0.00 0.00 0.00 77 1021.1
20240418080043 44 0 0.0 0.9 0.00 0.00 0.00 76 1021.1
20240418074543 43 0 0.0 0.9 0.00 0.00 0.00 78 1020.8
20240418073047 43 0 0.0 0.9 0.00 0.00 0.00 81 1020.7
20240418071544 43 0 0.0 0.9 0.00 0.00 0.00 81 1020.6
20240418070047 43 0 0.0 0.9 0.00 0.00 0.00 82 1020.6
20240418064543 42 0 0.0 0.0 0.00 0.00 0.00 83 1020.9
20240418063050 42 0 0.0 0.9 0.00 0.00 0.00 83 1021.0
20240418061541 42 0 0.0 0.9 0.00 0.00 0.00 84 1021.4
20240418060044 41 0 0.0 0.0 0.00 0.00 0.00 83 1021.6
20240418054546 41 0 0.0 0.0 0.00 0.00 0.00 83 1021.6
20240418053049 42 0 0.0 0.9 0.00 0.00 0.00 82 1021.8
20240418051546 42 0 0.0 0.9 0.00 0.00 0.00 81 1022.1
20240418050114 43 0 0.0 0.9 0.00 0.00 0.00 81 1022.2
20240418044547 43 0 0.0 1.7 0.00 0.00 0.00 80 1022.5
20240418043043 43 133 0.0 1.7 0.00 0.00 0.00 81 1022.6
20240418041550 43 0 0.0 2.6 0.00 0.00 0.00 81 1022.7
20240418040112 44 0 0.0 0.9 0.00 0.00 0.00 81 1022.8
20240418034545 44 134 0.0 2.6 0.00 0.00 0.00 81 1022.6
20240418033048 44 0 0.0 1.7 0.00 0.00 0.00 80 1022.6
20240418031547 44 134 0.0 2.6 0.00 0.00 0.00 79 1022.6
20240418030046 44 0 0.0 1.7 0.00 0.00 0.00 78 1022.6
20240418024543 44 140 0.0 1.7 0.00 0.00 0.00 79 1022.3
20240418023043 44 140 0.0 2.6 0.00 0.00 0.00 79 1022.1
20240418021541 44 0 0.0 1.7 0.00 0.00 0.00 79 1022.2
20240418020057 44 140 0.0 1.7 0.00 0.00 0.00 78 1022.3
20240418014546 44 0 0.0 1.7 0.00 0.00 0.00 77 1022.3
20240418013053 44 140 0.0 1.7 0.00 0.00 0.00 77 1022.3
20240418011547 44 0 0.0 2.6 0.00 0.00 0.00 76 1022.3
20240418010045 45 140 0.0 2.6 0.00 0.00 0.00 75 1022.1
20240418004544 45 139 0.0 2.6 0.00 0.00 0.00 74 1021.8
20240418003046 45 0 0.0 3.5 0.00 0.00 0.00 73 1021.8
20240418001547 45 140 0.0 4.3 0.00 0.00 0.00 72 1021.6
20240418000043 46 123 1.7 5.2 0.00 0.00 0.00 70 1021.3
20240417234547 46 0 0.9 4.3 0.00 0.00 0.00 68 1020.9
20240417233058 47 130 1.7 3.5 0.00 0.00 0.00 66 1021.1
20240417231558 47 0 0.9 6.1 0.00 0.00 0.00 63 1021.0
20240417230047 48 0 0.9 6.1 0.00 0.00 0.00 62 1020.9
20240417224557 49 135 0.9 6.1 0.00 0.00 0.00 61 1021.0
20240417223042 49 115 1.7 5.2 0.00 0.00 0.00 59 1020.9
20240417221546 50 160 0.9 7.0 0.00 0.00 0.00 59 1020.8
20240417220042 51 148 0.9 7.0 0.00 0.00 0.00 58 1020.7
20240417214543 51 175 1.7 7.8 0.00 0.00 0.00 56 1020.6
20240417213040 51 0 0.9 4.3 0.00 0.00 0.00 58 1020.5
20240417211545 52 142 0.9 6.1 0.00 0.00 0.00 56 1020.4
20240417210057 54 268 0.9 7.8 0.00 0.00 0.00 54 1020.4
20240417204546 56 193 1.7 7.0 0.00 0.00 0.00 52 1020.2
20240417203043 56 150 1.7 6.1 0.00 0.00 0.00 50 1020.2
20240417201544 56 153 0.9 6.1 0.00 0.00 0.00 50 1020.2
20240417200051 58 175 1.7 7.0 0.00 0.00 0.00 48 1020.2
20240417194551 56 138 2.6 7.8 0.00 0.00 0.00 51 1020.3
20240417193049 55 138 1.7 7.0 0.00 0.00 0.00 51 1020.4
20240417191548 56 134 1.7 8.7 0.00 0.00 0.00 49 1020.6
20240417190042 58 171 1.7 5.2 0.00 0.00 0.00 49 1020.9
20240417184552 58 117 0.9 5.2 0.00 0.00 0.00 48 1021.0
20240417183050 57 146 1.7 6.1 0.00 0.00 0.00 48 1021.1
20240417181550 56 200 1.7 6.1 0.00 0.00 0.00 52 1021.4
20240417180048 56 141 1.7 7.0 0.00 0.00 0.00 52 1021.5